Satellite-Ground Cal/Val Site Overpasses Predictions

Prediction of Satellite NPP Overpassing Cal/Val Site: Antarctic Dome C

Ground Cal/Val Site Location: Latitude: -75.10, Longitude: 123.35; Satellite-Ground Site NADIR distance within 100 km.

Table of predicted overpasses for the next 14.0 days since TLE Epoch: 2/5/2022
Interval Starting Time Ending Time Minimum Distance Time Minimum Distance (km)
1 02/06/2022 15:07:44 02/06/2022 15:07:54 02/06/2022 15:07:49 93.74
2 02/07/2022 14:48:45 02/07/2022 14:49:14 02/07/2022 14:49:00 17.40
3 02/09/2022 07:31:35 02/09/2022 07:32:04 02/09/2022 07:31:50 1.40
4 02/12/2022 14:55:03 02/12/2022 14:55:32 02/12/2022 14:55:17 19.36
5 02/13/2022 14:36:22 02/13/2022 14:36:36 02/13/2022 14:36:29 87.54
6 02/14/2022 07:37:53 02/14/2022 07:38:21 02/14/2022 07:38:07 35.62
7 02/15/2022 07:19:08 02/15/2022 07:19:28 02/15/2022 07:19:18 74.40
8 02/17/2022 15:01:23 02/17/2022 15:01:47 02/17/2022 15:01:35 56.66
